| time (UTC) | temp F | wind direction | speed MPH | gust MPH | rain 1hr in | rain 24hr in | rain mn in | humidity % | barometer mb |
| 20260510224712 | 51 | 257 | 6.0 | 15.0 | 0.00 | 0.16 | 0.00 | 60 | 1019.0 |
| 20260510224003 | 51 | 221 | 5.0 | 12.0 | 0.00 | 0.16 | 0.00 | 63 | 1018.9 |
| 20260510223503 | 51 | 226 | 6.0 | 14.0 | 0.00 | 0.16 | 0.00 | 63 | 1018.9 |
| 20260510223003 | 51 | 240 | 7.0 | 14.0 | 0.00 | 0.16 | 0.00 | 62 | 1018.9 |
| 20260510222505 | 51 | 242 | 6.0 | 14.0 | 0.00 | 0.16 | 0.00 | 62 | 1018.9 |
| 20260510222213 | 51 | 239 | 6.0 | 13.0 | 0.00 | 0.16 | 0.00 | 62 | 1018.9 |
| 20260510221503 | 51 | 240 | 7.0 | 18.0 | 0.00 | 0.16 | 0.00 | 63 | 1018.9 |
| 20260510221003 | 51 | 241 | 7.0 | 14.0 | 0.00 | 0.16 | 0.00 | 64 | 1018.8 |
| 20260510220505 | 51 | 239 | 7.0 | 17.0 | 0.00 | 0.16 | 0.00 | 63 | 1018.8 |
| 20260510220213 | 51 | 232 | 7.0 | 17.0 | 0.00 | 0.16 | 0.00 | 63 | 1018.9 |
| 20260510215503 | 51 | 232 | 7.0 | 17.0 | 0.00 | 0.16 | 0.00 | 64 | 1018.9 |
| 20260510215003 | 51 | 240 | 6.0 | 17.0 | 0.00 | 0.16 | 0.00 | 64 | 1018.7 |
| 20260510214504 | 51 | 227 | 4.0 | 17.0 | 0.00 | 0.16 | 0.00 | 65 | 1018.7 |
| 20260510214003 | 51 | 220 | 5.0 | 12.0 | 0.00 | 0.16 | 0.00 | 65 | 1018.7 |
| 20260510213714 | 51 | 228 | 5.0 | 12.0 | 0.00 | 0.16 | 0.00 | 66 | 1018.6 |
| 20260510213005 | 51 | 229 | 7.0 | 14.0 | 0.00 | 0.16 | 0.00 | 65 | 1018.3 |
| 20260510212503 | 51 | 229 | 8.0 | 15.0 | 0.00 | 0.16 | 0.00 | 64 | 1018.2 |
| 20260510212006 | 52 | 235 | 8.0 | 15.0 | 0.00 | 0.16 | 0.00 | 64 | 1018.2 |
| 20260510211716 | 52 | 232 | 7.0 | 15.0 | 0.00 | 0.16 | 0.00 | 64 | 1018.2 |
| 20260510211003 | 52 | 216 | 6.0 | 15.0 | 0.00 | 0.16 | 0.00 | 64 | 1018.0 |
| 20260510210503 | 52 | 219 | 6.0 | 15.0 | 0.00 | 0.16 | 0.00 | 64 | 1017.9 |
| 20260510210003 | 52 | 227 | 8.0 | 22.0 | 0.00 | 0.16 | 0.00 | 64 | 1017.8 |
| 20260510205503 | 52 | 231 | 9.0 | 22.0 | 0.00 | 0.16 | 0.00 | 64 | 1017.8 |
| 20260510205005 | 52 | 233 | 9.0 | 22.0 | 0.00 | 0.16 | 0.00 | 62 | 1017.7 |
| 20260510204503 | 52 | 239 | 9.0 | 18.0 | 0.00 | 0.16 | 0.00 | 62 | 1017.5 |
| 20260510204005 | 53 | 234 | 9.0 | 26.0 | 0.00 | 0.16 | 0.00 | 60 | 1017.5 |
| 20260510203503 | 53 | 234 | 9.0 | 26.0 | 0.00 | 0.16 | 0.00 | 59 | 1017.5 |
| 20260510203003 | 54 | 240 | 8.0 | 20.0 | 0.00 | 0.16 | 0.00 | 58 | 1017.4 |
| 20260510202505 | 54 | 227 | 7.0 | 19.0 | 0.00 | 0.16 | 0.00 | 58 | 1017.4 |
| 20260510202003 | 54 | 220 | 8.0 | 19.0 | 0.00 | 0.16 | 0.00 | 58 | 1017.3 |
| 20260510201505 | 54 | 226 | 9.0 | 24.0 | 0.00 | 0.16 | 0.00 | 58 | 1017.3 |
| 20260510201003 | 54 | 232 | 10.0 | 24.0 | 0.00 | 0.16 | 0.00 | 57 | 1017.3 |
| 20260510200503 | 54 | 235 | 11.0 | 19.0 | 0.00 | 0.16 | 0.00 | 58 | 1017.4 |
| 20260510200003 | 54 | 235 | 10.0 | 19.0 | 0.00 | 0.16 | 0.00 | 55 | 1017.3 |
| 20260510195505 | 55 | 239 | 10.0 | 20.0 | 0.00 | 0.16 | 0.00 | 54 | 1017.4 |
| 20260510195003 | 54 | 237 | 11.0 | 20.0 | 0.00 | 0.16 | 0.00 | 56 | 1017.4 |
| 20260510194504 | 54 | 232 | 12.0 | 26.0 | 0.00 | 0.16 | 0.00 | 55 | 1017.3 |
| 20260510194003 | 55 | 230 | 10.0 | 26.0 | 0.00 | 0.16 | 0.00 | 54 | 1017.1 |
| 20260510193503 | 54 | 226 | 9.0 | 20.0 | 0.00 | 0.16 | 0.00 | 55 | 1017.1 |
| 20260510193003 | 54 | 220 | 9.0 | 19.0 | 0.00 | 0.16 | 0.00 | 55 | 1017.1 |
| 20260510192503 | 54 | 218 | 9.0 | 20.0 | 0.00 | 0.16 | 0.00 | 54 | 1017.0 |
| 20260510192214 | 54 | 220 | 10.0 | 20.0 | 0.00 | 0.16 | 0.00 | 53 | 1017.0 |
| 20260510191503 | 56 | 238 | 10.0 | 20.0 | 0.00 | 0.16 | 0.00 | 51 | 1017.0 |
| 20260510191214 | 56 | 243 | 10.0 | 20.0 | 0.00 | 0.16 | 0.00 | 53 | 1017.0 |
| 20260510190503 | 55 | 254 | 10.0 | 19.0 | 0.00 | 0.16 | 0.00 | 53 | 1017.0 |
| 20260510190003 | 55 | 245 | 11.0 | 20.0 | 0.00 | 0.16 | 0.00 | 53 | 1017.0 |
| 20260510185713 | 55 | 241 | 11.0 | 20.0 | 0.00 | 0.16 | 0.00 | 53 | 1017.0 |
| 20260510185004 | 55 | 249 | 10.0 | 20.0 | 0.00 | 0.16 | 0.00 | 54 | 1016.8 |
| 20260510184503 | 55 | 237 | 10.0 | 23.0 | 0.00 | 0.16 | 0.00 | 54 | 1016.9 |
| 20260510184003 | 54 | 228 | 11.0 | 23.0 | 0.00 | 0.16 | 0.00 | 55 | 1016.8 |
| 20260510183713 | 54 | 235 | 11.0 | 23.0 | 0.00 | 0.16 | 0.00 | 54 | 1016.8 |
| 20260510183004 | 54 | 242 | 11.0 | 22.0 | 0.00 | 0.16 | 0.00 | 55 | 1016.8 |
| 20260510182503 | 54 | 231 | 11.0 | 22.0 | 0.00 | 0.16 | 0.00 | 56 | 1016.9 |
| 20260510182005 | 54 | 216 | 11.0 | 22.0 | 0.00 | 0.16 | 0.00 | 55 | 1016.8 |
| 20260510181503 | 54 | 217 | 9.0 | 23.0 | 0.00 | 0.16 | 0.00 | 58 | 1016.7 |
| 20260510181006 | 55 | 223 | 8.0 | 22.0 | 0.00 | 0.16 | 0.00 | 55 | 1016.7 |
| 20260510180504 | 55 | 227 | 9.0 | 20.0 | 0.00 | 0.16 | 0.00 | 58 | 1016.5 |
| 20260510180003 | 54 | 230 | 10.0 | 20.0 | 0.00 | 0.16 | 0.00 | 56 | 1016.5 |
| 20260510175503 | 54 | 227 | 11.0 | 20.0 | 0.00 | 0.16 | 0.00 | 56 | 1016.6 |
| 20260510175005 | 54 | 230 | 9.0 | 20.0 | 0.00 | 0.16 | 0.00 | 57 | 1016.5 |
| 20260510174714 | 54 | 240 | 8.0 | 19.0 | 0.00 | 0.16 | 0.00 | 57 | 1016.5 |
| 20260510174003 | 54 | 273 | 6.0 | 15.0 | 0.00 | 0.16 | 0.00 | 56 | 1016.5 |
| 20260510173503 | 54 | 262 | 6.0 | 17.0 | 0.00 | 0.16 | 0.00 | 53 | 1016.4 |
| 20260510173213 | 55 | 255 | 6.0 | 17.0 | 0.00 | 0.16 | 0.00 | 58 | 1016.5 |
| 20260510172503 | 55 | 286 | 6.0 | 13.0 | 0.00 | 0.16 | 0.00 | 54 | 1016.4 |
| 20260510172005 | 55 | 276 | 7.0 | 15.0 | 0.00 | 0.16 | 0.00 | 45 | 1016.4 |
| 20260510171504 | 55 | 308 | 8.0 | 20.0 | 0.00 | 0.16 | 0.00 | 52 | 1016.3 |
| 20260510171003 | 55 | 326 | 9.0 | 20.0 | 0.00 | 0.16 | 0.00 | 45 | 1016.2 |
| 20260510170505 | 54 | 310 | 9.0 | 18.0 | 0.00 | 0.16 | 0.00 | 47 | 1016.1 |
| 20260510170003 | 55 | 318 | 10.0 | 19.0 | 0.00 | 0.16 | 0.00 | 42 | 1016.2 |
| 20260510165503 | 54 | 325 | 9.0 | 24.0 | 0.00 | 0.16 | 0.00 | 44 | 1016.2 |
| 20260510165003 | 54 | 312 | 9.0 | 24.0 | 0.00 | 0.16 | 0.00 | 42 | 1016.3 |
| 20260510164505 | 54 | 317 | 10.0 | 22.0 | 0.00 | 0.16 | 0.00 | 44 | 1016.2 |
| 20260510164003 | 54 | 327 | 11.0 | 23.0 | 0.00 | 0.16 | 0.00 | 43 | 1016.2 |
| 20260510163504 | 54 | 326 | 11.0 | 23.0 | 0.00 | 0.16 | 0.00 | 43 | 1016.2 |
| 20260510163003 | 53 | 325 | 11.0 | 23.0 | 0.00 | 0.16 | 0.00 | 42 | 1016.2 |
| 20260510162503 | 54 | 317 | 10.0 | 23.0 | 0.00 | 0.16 | 0.00 | 45 | 1016.2 |
| 20260510162003 | 54 | 307 | 10.0 | 18.0 | 0.00 | 0.16 | 0.00 | 48 | 1016.3 |
| 20260510161503 | 53 | 315 | 11.0 | 19.0 | 0.00 | 0.16 | 0.00 | 47 | 1016.3 |
| 20260510161003 | 53 | 321 | 11.0 | 22.0 | 0.00 | 0.16 | 0.00 | 47 | 1016.2 |
| 20260510160714 | 53 | 305 | 11.0 | 22.0 | 0.00 | 0.16 | 0.00 | 47 | 1016.2 |
| 20260510160003 | 53 | 312 | 10.0 | 22.0 | 0.00 | 0.16 | 0.00 | 47 | 1016.2 |
| 20260510155714 | 53 | 327 | 10.0 | 22.0 | 0.00 | 0.16 | 0.00 | 46 | 1016.3 |
| 20260510155213 | 53 | 315 | 8.0 | 19.0 | 0.00 | 0.16 | 0.00 | 47 | 1016.1 |
| 20260510154504 | 52 | 315 | 11.0 | 24.0 | 0.00 | 0.16 | 0.00 | 45 | 1016.3 |
| 20260510154003 | 52 | 316 | 10.0 | 24.0 | 0.00 | 0.16 | 0.00 | 45 | 1016.3 |
| 20260510153714 | 53 | 319 | 10.0 | 20.0 | 0.00 | 0.16 | 0.00 | 45 | 1016.3 |
| 20260510153003 | 53 | 305 | 8.0 | 19.0 | 0.00 | 0.16 | 0.00 | 50 | 1016.2 |
| 20260510152503 | 52 | 294 | 8.0 | 20.0 | 0.00 | 0.16 | 0.00 | 51 | 1016.2 |
| 20260510152005 | 52 | 297 | 9.0 | 20.0 | 0.00 | 0.16 | 0.00 | 51 | 1016.2 |
| 20260510151503 | 52 | 298 | 10.0 | 20.0 | 0.00 | 0.16 | 0.00 | 51 | 1016.2 |
| 20260510151003 | 52 | 306 | 10.0 | 20.0 | 0.00 | 0.16 | 0.00 | 50 | 1016.1 |
| 20260510150714 | 52 | 305 | 10.0 | 20.0 | 0.00 | 0.16 | 0.00 | 53 | 1016.1 |
| 20260510150003 | 51 | 299 | 10.0 | 20.0 | 0.00 | 0.16 | 0.00 | 53 | 1016.0 |
| 20260510145503 | 52 | 283 | 11.0 | 20.0 | 0.00 | 0.16 | 0.00 | 52 | 1016.0 |
| 20260510145003 | 52 | 282 | 9.0 | 20.0 | 0.00 | 0.16 | 0.00 | 55 | 1015.9 |
| 20260510144503 | 52 | 282 | 8.0 | 20.0 | 0.00 | 0.16 | 0.00 | 53 | 1015.8 |
| 20260510144003 | 52 | 267 | 9.0 | 17.0 | 0.00 | 0.16 | 0.00 | 53 | 1015.7 |
| 20260510143505 | 52 | 270 | 10.0 | 17.0 | 0.00 | 0.16 | 0.00 | 58 | 1015.7 |
| 20260510143003 | 51 | 279 | 9.0 | 18.0 | 0.00 | 0.16 | 0.00 | 54 | 1015.6 |
| 20260510142503 | 51 | 303 | 8.0 | 18.0 | 0.00 | 0.16 | 0.00 | 54 | 1015.4 |
| 20260510142003 | 51 | 320 | 7.0 | 15.0 | 0.00 | 0.16 | 0.00 | 57 | 1015.5 |
| 20260510141504 | 51 | 316 | 7.0 | 15.0 | 0.00 | 0.16 | 0.00 | 56 | 1015.3 |
| 20260510141003 | 51 | 301 | 7.0 | 19.0 | 0.00 | 0.16 | 0.00 | 56 | 1015.4 |
| 20260510140505 | 51 | 285 | 8.0 | 19.0 | 0.00 | 0.16 | 0.00 | 57 | 1015.3 |
| 20260510140003 | 50 | 285 | 9.0 | 18.0 | 0.00 | 0.16 | 0.00 | 56 | 1015.3 |
| 20260510135504 | 50 | 283 | 9.0 | 20.0 | 0.00 | 0.16 | 0.00 | 57 | 1015.2 |
| 20260510135003 | 50 | 290 | 8.0 | 20.0 | 0.00 | 0.16 | 0.00 | 57 | 1015.2 |
| 20260510134503 | 50 | 285 | 9.0 | 20.0 | 0.00 | 0.16 | 0.00 | 59 | 1015.2 |
| 20260510134003 | 50 | 268 | 8.0 | 20.0 | 0.00 | 0.16 | 0.00 | 60 | 1015.1 |
| 20260510133503 | 49 | 269 | 6.0 | 20.0 | 0.00 | 0.16 | 0.00 | 63 | 1015.0 |
| 20260510133214 | 49 | 278 | 6.0 | 15.0 | 0.00 | 0.16 | 0.00 | 60 | 1014.9 |
| 20260510132506 | 49 | 297 | 7.0 | 17.0 | 0.00 | 0.16 | 0.00 | 63 | 1014.8 |
| 20260510132003 | 48 | 309 | 7.0 | 17.0 | 0.00 | 0.16 | 0.00 | 63 | 1014.9 |
| 20260510131505 | 48 | 326 | 6.0 | 17.0 | 0.00 | 0.16 | 0.00 | 65 | 1014.8 |
| 20260510131214 | 48 | 339 | 6.0 | 17.0 | 0.00 | 0.16 | 0.00 | 64 | 1014.8 |
| 20260510130505 | 48 | 320 | 7.0 | 15.0 | 0.00 | 0.16 | 0.00 | 64 | 1014.6 |
| 20260510130005 | 48 | 312 | 8.0 | 15.0 | 0.00 | 0.16 | 0.00 | 64 | 1014.5 |
| 20260510125715 | 48 | 301 | 7.0 | 14.0 | 0.00 | 0.16 | 0.00 | 64 | 1014.5 |
| 20260510125003 | 48 | 288 | 7.0 | 15.0 | 0.00 | 0.16 | 0.00 | 67 | 1014.4 |
| 20260510124503 | 48 | 295 | 8.0 | 18.0 | 0.00 | 0.16 | 0.00 | 67 | 1014.5 |
| 20260510124005 | 48 | 288 | 7.0 | 18.0 | 0.00 | 0.16 | 0.00 | 66 | 1014.5 |
| 20260510123713 | 48 | 291 | 7.0 | 17.0 | 0.00 | 0.16 | 0.00 | 67 | 1014.5 |
| 20260510123003 | 47 | 306 | 7.0 | 14.0 | 0.00 | 0.16 | 0.00 | 67 | 1014.4 |
| 20260510122503 | 47 | 304 | 7.0 | 14.0 | 0.00 | 0.16 | 0.00 | 68 | 1014.4 |
| 20260510122003 | 47 | 300 | 7.0 | 18.0 | 0.00 | 0.16 | 0.00 | 66 | 1014.4 |
| 20260510121503 | 48 | 293 | 7.0 | 18.0 | 0.00 | 0.16 | 0.00 | 69 | 1014.3 |
| 20260510121213 | 47 | 297 | 7.0 | 13.0 | 0.00 | 0.16 | 0.00 | 69 | 1014.2 |
| 20260510120503 | 47 | 287 | 5.0 | 13.0 | 0.00 | 0.16 | 0.00 | 69 | 1014.1 |
| 20260510120213 | 47 | 287 | 5.0 | 12.0 | 0.00 | 0.16 | 0.00 | 69 | 1014.0 |
| 20260510115504 | 47 | 278 | 6.0 | 12.0 | 0.00 | 0.16 | 0.00 | 70 | 1013.9 |
| 20260510115003 | 47 | 262 | 6.0 | 12.0 | 0.00 | 0.16 | 0.00 | 70 | 1013.8 |
| 20260510114714 | 46 | 254 | 6.0 | 13.0 | 0.00 | 0.16 | 0.00 | 71 | 1013.8 |
| 20260510114215 | 46 | 261 | 4.0 | 13.0 | 0.00 | 0.16 | 0.00 | 74 | 1013.6 |
| 20260510113503 | 46 | 286 | 4.0 | 9.0 | 0.00 | 0.16 | 0.00 | 75 | 1013.5 |
| 20260510113005 | 45 | 290 | 4.0 | 9.0 | 0.00 | 0.16 | 0.00 | 75 | 1013.4 |
| 20260510112504 | 45 | 294 | 4.0 | 9.0 | 0.00 | 0.16 | 0.00 | 75 | 1013.4 |
| 20260510112004 | 45 | 303 | 3.0 | 9.0 | 0.00 | 0.16 | 0.00 | 76 | 1013.4 |
| 20260510111503 | 45 | 319 | 2.0 | 9.0 | 0.00 | 0.16 | 0.00 | 77 | 1013.2 |
| 20260510111003 | 45 | 327 | 2.0 | 6.0 | 0.00 | 0.16 | 0.00 | 77 | 1013.2 |
| 20260510110505 | 45 | 327 | 2.0 | 6.0 | 0.00 | 0.16 | 0.00 | 77 | 1013.1 |
| 20260510110005 | 45 | 327 | 2.0 | 6.0 | 0.00 | 0.16 | 0.00 | 77 | 1013.0 |
| 20260510105503 | 45 | 327 | 2.0 | 5.0 | 0.00 | 0.16 | 0.00 | 77 | 1012.8 |
| 20260510105003 | 45 | 327 | 3.0 | 6.0 | 0.00 | 0.16 | 0.00 | 76 | 1012.7 |
| 20260510104505 | 45 | 327 | 4.0 | 8.0 | 0.00 | 0.16 | 0.00 | 76 | 1012.6 |
| 20260510104003 | 45 | 329 | 3.0 | 8.0 | 0.00 | 0.16 | 0.00 | 76 | 1012.5 |
| 20260510103504 | 45 | 331 | 3.0 | 8.0 | 0.00 | 0.16 | 0.00 | 76 | 1012.3 |
| 20260510103003 | 45 | 331 | 3.0 | 5.0 | 0.00 | 0.16 | 0.00 | 76 | 1012.2 |
| 20260510102503 | 45 | 331 | 3.0 | 6.0 | 0.00 | 0.16 | 0.00 | 76 | 1012.3 |
| 20260510102003 | 45 | 333 | 4.0 | 6.0 | 0.00 | 0.16 | 0.00 | 76 | 1012.2 |
| 20260510101505 | 45 | 333 | 5.0 | 14.0 | 0.00 | 0.16 | 0.00 | 76 | 1012.1 |
| 20260510101005 | 45 | 324 | 5.0 | 14.0 | 0.00 | 0.16 | 0.00 | 76 | 1011.8 |
| 20260510100503 | 45 | 318 | 5.0 | 13.0 | 0.00 | 0.16 | 0.00 | 77 | 1011.7 |
| 20260510100005 | 46 | 321 | 4.0 | 12.0 | 0.00 | 0.16 | 0.00 | 78 | 1011.5 |
| 20260510095714 | 46 | 329 | 4.0 | 10.0 | 0.00 | 0.16 | 0.00 | 78 | 1011.4 |
| 20260510095003 | 46 | 338 | 3.0 | 8.0 | 0.00 | 0.16 | 0.00 | 80 | 1011.1 |
| 20260510094503 | 46 | 335 | 3.0 | 12.0 | 0.00 | 0.16 | 0.00 | 80 | 1011.2 |
| 20260510094005 | 46 | 324 | 2.0 | 12.0 | 0.00 | 0.16 | 0.00 | 80 | 1011.3 |
| 20260510093503 | 46 | 296 | 1.0 | 6.0 | 0.00 | 0.16 | 0.00 | 81 | 1011.5 |
| 20260510093003 | 46 | 295 | 1.0 | 4.0 | 0.00 | 0.16 | 0.00 | 80 | 1011.2 |
| 20260510092713 | 46 | 295 | 1.0 | 4.0 | 0.00 | 0.16 | 0.00 | 80 | 1011.1 |
| 20260510092003 | 46 | 295 | 1.0 | 5.0 | 0.00 | 0.16 | 0.00 | 80 | 1010.9 |
| 20260510091503 | 46 | 295 | 2.0 | 5.0 | 0.00 | 0.16 | 0.00 | 79 | 1011.2 |
| 20260510091003 | 47 | 297 | 3.0 | 9.0 | 0.00 | 0.16 | 0.00 | 79 | 1011.1 |
| 20260510090505 | 47 | 303 | 3.0 | 9.0 | 0.00 | 0.16 | 0.00 | 79 | 1011.1 |
| 20260510090214 | 47 | 305 | 3.0 | 9.0 | 0.00 | 0.16 | 0.00 | 79 | 1011.1 |
| 20260510085505 | 47 | 306 | 2.0 | 6.0 | 0.00 | 0.16 | 0.00 | 78 | 1010.9 |
| 20260510085003 | 47 | 303 | 2.0 | 6.0 | 0.00 | 0.16 | 0.00 | 78 | 1010.4 |
| 20260510084503 | 47 | 299 | 4.0 | 13.0 | 0.00 | 0.16 | 0.00 | 78 | 1010.4 |
| 20260510084003 | 48 | 321 | 3.0 | 13.0 | 0.00 | 0.16 | 0.00 | 78 | 1010.5 |
| 20260510083505 | 48 | 5 | 2.0 | 6.0 | 0.00 | 0.16 | 0.00 | 79 | 1010.5 |
| 20260510083214 | 48 | 5 | 2.0 | 4.0 | 0.00 | 0.16 | 0.00 | 79 | 1010.5 |
| 20260510082713 | 48 | 1 | 3.0 | 10.0 | 0.00 | 0.16 | 0.00 | 79 | 1010.5 |
| 20260510082003 | 48 | 313 | 4.0 | 15.0 | 0.00 | 0.16 | 0.00 | 79 | 1010.4 |
| 20260510081713 | 48 | 307 | 4.0 | 15.0 | 0.00 | 0.16 | 0.00 | 80 | 1010.4 |
| 20260510081003 | 49 | 327 | 2.0 | 5.0 | 0.00 | 0.16 | 0.00 | 80 | 1010.5 |
| 20260510080503 | 49 | 327 | 1.0 | 4.0 | 0.00 | 0.16 | 0.00 | 81 | 1010.2 |
| 20260510080214 | 49 | 327 | 1.0 | 4.0 | 0.00 | 0.16 | 0.00 | 80 | 1010.2 |
| 20260510075504 | 49 | 325 | 3.0 | 8.0 | 0.00 | 0.16 | 0.00 | 80 | 1010.1 |
| 20260510075003 | 49 | 326 | 4.0 | 12.0 | 0.00 | 0.16 | 0.00 | 81 | 1010.3 |
| 20260510074505 | 49 | 331 | 5.0 | 12.0 | 0.00 | 0.16 | 0.00 | 83 | 1010.3 |
| 20260510074214 | 49 | 335 | 4.0 | 12.0 | 0.00 | 0.16 | 0.00 | 83 | 1010.0 |
| 20260510073503 | 49 | 329 | 4.0 | 8.0 | 0.00 | 0.16 | 0.00 | 87 | 1009.6 |
| 20260510073003 | 49 | 318 | 4.0 | 8.0 | 0.00 | 0.16 | 0.00 | 89 | 1010.0 |
| 20260510072505 | 49 | 307 | 3.0 | 6.0 | 0.00 | 0.16 | 0.00 | 90 | 1009.7 |
| 20260510072003 | 50 | 299 | 1.0 | 5.0 | 0.00 | 0.16 | 0.00 | 91 | 1009.4 |
| 20260510071503 | 50 | 298 | 1.0 | 4.0 | 0.00 | 0.16 | 0.00 | 92 | 1009.4 |
| 20260510071003 | 50 | 300 | 2.0 | 10.0 | 0.00 | 0.16 | 0.00 | 92 | 1009.1 |
| 20260510070505 | 50 | 302 | 2.0 | 10.0 | 0.00 | 0.16 | 0.00 | 93 | 1009.5 |
| 20260510070004 | 50 | 306 | 1.0 | 5.0 | 0.00 | 0.16 | 0.00 | 93 | 1009.3 |
| 20260510065503 | 50 | 306 | 1.0 | 4.0 | 0.00 | 0.16 | 0.00 | 94 | 1009.1 |
| 20260510065213 | 50 | 306 | 1.0 | 4.0 | 0.00 | 0.16 | 0.00 | 94 | 1008.9 |
| 20260510064503 | 50 | 305 | 1.0 | 4.0 | 0.00 | 0.16 | 0.00 | 94 | 1008.9 |
| 20260510064003 | 50 | 305 | 2.0 | 6.0 | 0.00 | 0.16 | 0.00 | 95 | 1009.1 |
| 20260510063503 | 50 | 305 | 1.0 | 6.0 | 0.00 | 0.16 | 0.00 | 95 | 1009.0 |
| 20260510063005 | 50 | 305 | 1.0 | 5.0 | 0.00 | 0.16 | 0.00 | 95 | 1009.0 |
| 20260510062505 | 50 | 305 | 2.0 | 4.0 | 0.00 | 0.16 | 0.00 | 95 | 1008.8 |
| 20260510062003 | 51 | 304 | 2.0 | 5.0 | 0.00 | 0.16 | 0.00 | 95 | 1008.8 |
| 20260510061503 | 51 | 301 | 2.0 | 5.0 | 0.00 | 0.16 | 0.00 | 95 | 1008.7 |
| 20260510061003 | 51 | 297 | 2.0 | 5.0 | 0.00 | 0.16 | 0.00 | 95 | 1008.6 |
| 20260510060503 | 51 | 293 | 2.0 | 5.0 | 0.00 | 0.16 | 0.00 | 95 | 1008.7 |
| 20260510060003 | 51 | 293 | 2.0 | 5.0 | 0.00 | 0.16 | 0.00 | 95 | 1008.7 |
| 20260510055712 | 51 | 292 | 2.0 | 5.0 | 0.00 | 0.16 | 0.00 | 95 | 1008.7 |
| 20260510055003 | 51 | 289 | 3.0 | 6.0 | 0.00 | 0.16 | 0.00 | 95 | 1008.8 |
| 20260510054503 | 51 | 285 | 3.0 | 8.0 | 0.00 | 0.16 | 0.00 | 95 | 1008.8 |
| 20260510054005 | 51 | 282 | 3.0 | 8.0 | 0.00 | 0.16 | 0.00 | 95 | 1008.5 |
| 20260510053503 | 51 | 279 | 3.0 | 8.0 | 0.00 | 0.16 | 0.00 | 95 | 1008.6 |
| 20260510053215 | 51 | 277 | 3.0 | 8.0 | 0.00 | 0.16 | 0.00 | 95 | 1008.4 |
| 20260510052503 | 51 | 271 | 3.0 | 8.0 | 0.00 | 0.16 | 0.00 | 95 | 1008.4 |
| 20260510052003 | 51 | 270 | 3.0 | 8.0 | 0.00 | 0.16 | 0.00 | 95 | 1008.4 |
| 20260510051503 | 51 | 269 | 3.0 | 5.0 | 0.00 | 0.16 | 0.00 | 94 | 1008.2 |
| 20260510051004 | 51 | 270 | 3.0 | 9.0 | 0.00 | 0.16 | 0.00 | 94 | 1008.1 |
| 20260510050503 | 51 | 280 | 3.0 | 9.0 | 0.00 | 0.16 | 0.00 | 94 | 1008.2 |
| 20260510050003 | 51 | 291 | 3.0 | 9.0 | 0.00 | 0.16 | 0.00 | 94 | 1008.1 |
| 20260510045503 | 51 | 296 | 2.0 | 9.0 | 0.00 | 0.16 | 0.00 | 94 | 1008.0 |
| 20260510045005 | 51 | 294 | 3.0 | 9.0 | 0.00 | 0.16 | 0.00 | 94 | 1008.0 |
| 20260510044505 | 51 | 269 | 4.0 | 9.0 | 0.00 | 0.16 | 0.00 | 94 | 1008.0 |
| 20260510044003 | 51 | 232 | 3.0 | 9.0 | 0.00 | 0.16 | 0.00 | 94 | 1008.0 |
| 20260510043505 | 51 | 221 | 4.0 | 10.0 | 0.00 | 0.16 | 0.00 | 94 | 1007.7 |
| 20260510043003 | 51 | 224 | 4.0 | 10.0 | 0.01 | 0.16 | 0.00 | 94 | 1007.6 |
| 20260510042716 | 51 | 224 | 4.0 | 10.0 | 0.01 | 0.16 | 0.00 | 94 | 1007.6 |
| 20260510042005 | 51 | 217 | 3.0 | 5.0 | 0.01 | 0.16 | 0.00 | 94 | 1007.4 |
| 20260510041503 | 51 | 216 | 2.0 | 5.0 | 0.01 | 0.16 | 0.00 | 93 | 1007.1 |
| 20260510041003 | 52 | 215 | 2.0 | 5.0 | 0.01 | 0.16 | 0.00 | 93 | 1007.2 |
| 20260510040503 | 52 | 214 | 2.0 | 6.0 | 0.01 | 0.16 | 0.00 | 93 | 1007.0 |
| 20260510040003 | 52 | 210 | 3.0 | 6.0 | 0.01 | 0.16 | 0.00 | 93 | 1007.0 |
| 20260510035713 | 52 | 206 | 2.0 | 6.0 | 0.01 | 0.16 | 0.16 | 93 | 1007.0 |
| 20260510035003 | 52 | 205 | 2.0 | 6.0 | 0.01 | 0.16 | 0.16 | 93 | 1007.0 |
| 20260510034503 | 52 | 205 | 2.0 | 9.0 | 0.01 | 0.16 | 0.16 | 93 | 1007.0 |
| 20260510034003 | 52 | 195 | 3.0 | 9.0 | 0.01 | 0.16 | 0.16 | 93 | 1007.1 |
| 20260510033503 | 52 | 211 | 3.0 | 9.0 | 0.01 | 0.16 | 0.16 | 93 | 1007.0 |
| 20260510033005 | 52 | 234 | 3.0 | 9.0 | 0.00 | 0.15 | 0.15 | 93 | 1007.2 |
| 20260510032503 | 51 | 237 | 2.0 | 9.0 | 0.00 | 0.15 | 0.15 | 93 | 1007.3 |
| 20260510032005 | 51 | 237 | 2.0 | 4.0 | 0.00 | 0.15 | 0.15 | 93 | 1007.1 |
| 20260510031503 | 51 | 237 | 2.0 | 4.0 | 0.00 | 0.15 | 0.15 | 92 | 1007.2 |
| 20260510031003 | 52 | 238 | 1.0 | 4.0 | 0.00 | 0.15 | 0.15 | 92 | 1007.1 |
| 20260510030503 | 52 | 238 | 1.0 | 3.0 | 0.00 | 0.15 | 0.15 | 92 | 1007.2 |
| 20260510030004 | 52 | 238 | 1.0 | 3.0 | 0.00 | 0.15 | 0.15 | 92 | 1007.2 |
| 20260510025503 | 52 | 238 | 1.0 | 3.0 | 0.00 | 0.15 | 0.15 | 92 | 1007.1 |
| 20260510025005 | 52 | 238 | 1.0 | 3.0 | 0.00 | 0.15 | 0.15 | 92 | 1007.1 |
| 20260510024503 | 52 | 238 | 2.0 | 4.0 | 0.00 | 0.15 | 0.15 | 92 | 1007.0 |
| 20260510024003 | 52 | 236 | 3.0 | 6.0 | 0.00 | 0.15 | 0.15 | 92 | 1007.0 |
| 20260510023503 | 52 | 229 | 3.0 | 6.0 | 0.00 | 0.15 | 0.15 | 92 | 1006.9 |
| 20260510023003 | 52 | 212 | 3.0 | 6.0 | 0.00 | 0.15 | 0.15 | 92 | 1006.8 |
| 20260510022505 | 52 | 187 | 3.0 | 6.0 | 0.00 | 0.15 | 0.15 | 92 | 1006.5 |
| 20260510022003 | 52 | 177 | 3.0 | 8.0 | 0.00 | 0.15 | 0.15 | 92 | 1006.3 |
| 20260510021503 | 52 | 204 | 3.0 | 9.0 | 0.00 | 0.15 | 0.15 | 92 | 1006.4 |
| 20260510021006 | 53 | 223 | 4.0 | 9.0 | 0.00 | 0.15 | 0.15 | 92 | 1006.5 |
| 20260510020503 | 53 | 224 | 5.0 | 13.0 | 0.00 | 0.15 | 0.15 | 92 | 1006.6 |
| 20260510020004 | 52 | 222 | 5.0 | 15.0 | 0.00 | 0.15 | 0.15 | 93 | 1006.5 |
| 20260510015503 | 52 | 221 | 5.0 | 15.0 | 0.00 | 0.15 | 0.15 | 93 | 1006.6 |
| 20260510015003 | 52 | 221 | 4.0 | 13.0 | 0.00 | 0.15 | 0.15 | 93 | 1006.5 |
| 20260510014504 | 52 | 226 | 5.0 | 12.0 | 0.00 | 0.15 | 0.15 | 93 | 1006.4 |
| 20260510014003 | 52 | 227 | 6.0 | 14.0 | 0.00 | 0.15 | 0.15 | 93 | 1006.3 |
| 20260510013714 | 52 | 225 | 6.0 | 19.0 | 0.00 | 0.15 | 0.15 | 93 | 1006.4 |
| 20260510013003 | 52 | 226 | 6.0 | 19.0 | 0.00 | 0.15 | 0.15 | 93 | 1006.3 |
| 20260510012503 | 52 | 222 | 6.0 | 12.0 | 0.00 | 0.15 | 0.15 | 94 | 1006.2 |
| 20260510012213 | 52 | 223 | 6.0 | 12.0 | 0.00 | 0.15 | 0.15 | 94 | 1006.1 |
| 20260510011503 | 52 | 225 | 4.0 | 12.0 | 0.00 | 0.15 | 0.15 | 94 | 1006.1 |
| 20260510011003 | 52 | 221 | 3.0 | 10.0 | 0.00 | 0.15 | 0.15 | 94 | 1006.1 |
| 20260510010504 | 52 | 224 | 4.0 | 10.0 | 0.00 | 0.15 | 0.15 | 94 | 1006.1 |
| 20260510010003 | 52 | 229 | 4.0 | 9.0 | 0.00 | 0.15 | 0.15 | 93 | 1006.1 |
| 20260510005503 | 52 | 224 | 4.0 | 9.0 | 0.00 | 0.15 | 0.15 | 93 | 1006.0 |
| 20260510005003 | 52 | 213 | 3.0 | 9.0 | 0.00 | 0.15 | 0.15 | 93 | 1005.8 |
| 20260510004503 | 52 | 206 | 3.0 | 6.0 | 0.00 | 0.15 | 0.15 | 93 | 1005.3 |
| 20260510004003 | 52 | 204 | 4.0 | 9.0 | 0.00 | 0.15 | 0.15 | 93 | 1005.3 |
| 20260510003503 | 52 | 205 | 5.0 | 12.0 | 0.01 | 0.15 | 0.15 | 93 | 1005.3 |
| 20260510003003 | 52 | 194 | 6.0 | 15.0 | 0.02 | 0.15 | 0.15 | 93 | 1005.4 |
| 20260510002503 | 52 | 189 | 6.0 | 15.0 | 0.05 | 0.15 | 0.15 | 93 | 1005.4 |
| 20260510002005 | 52 | 191 | 5.0 | 15.0 | 0.06 | 0.15 | 0.15 | 93 | 1005.4 |
| 20260510001503 | 51 | 188 | 5.0 | 15.0 | 0.07 | 0.15 | 0.15 | 93 | 1005.5 |
| 20260510001213 | 51 | 189 | 5.0 | 12.0 | 0.07 | 0.15 | 0.15 | 93 | 1005.5 |
| 20260510000714 | 51 | 197 | 4.0 | 12.0 | 0.08 | 0.15 | 0.15 | 93 | 1005.6 |
| 20260510000213 | 51 | 187 | 4.0 | 12.0 | 0.10 | 0.15 | 0.15 | 93 | 1005.7 |
| 20260509235714 | 51 | 179 | 4.0 | 13.0 | 0.14 | 0.15 | 0.15 | 92 | 1005.5 |
| 20260509235003 | 51 | 208 | 4.0 | 13.0 | 0.15 | 0.15 | 0.15 | 92 | 1005.5 |
| 20260509234503 | 51 | 227 | 4.0 | 10.0 | 0.15 | 0.15 | 0.15 | 92 | 1005.7 |
| 20260509234215 | 51 | 241 | 6.0 | 14.0 | 0.15 | 0.15 | 0.15 | 92 | 1005.6 |
| 20260509233503 | 52 | 260 | 9.0 | 18.0 | 0.14 | 0.14 | 0.14 | 91 | 1006.1 |
| 20260509233005 | 52 | 273 | 11.0 | 32.0 | 0.13 | 0.13 | 0.13 | 91 | 1006.2 |
| 20260509232503 | 52 | 278 | 13.0 | 32.0 | 0.10 | 0.10 | 0.10 | 90 | 1006.1 |
| 20260509232003 | 52 | 285 | 13.0 | 28.0 | 0.09 | 0.09 | 0.09 | 89 | 1006.3 |
| 20260509231505 | 52 | 291 | 14.0 | 28.0 | 0.08 | 0.08 | 0.08 | 87 | 1006.2 |
| 20260509231005 | 53 | 293 | 17.0 | 46.0 | 0.07 | 0.07 | 0.07 | 86 | 1006.2 |
| 20260509230503 | 55 | 289 | 16.0 | 46.0 | 0.06 | 0.06 | 0.06 | 82 | 1006.3 |
| 20260509230004 | 58 | 269 | 11.0 | 33.0 | 0.03 | 0.03 | 0.03 | 78 | 1006.2 |
| 20260509225503 | 61 | 233 | 7.0 | 15.0 | 0.01 | 0.01 | 0.01 | 77 | 1005.0 |
| 20260509225004 | 61 | 222 | 6.0 | 14.0 | 0.00 | 0.00 | 0.00 | 76 | 1004.0 |